Probability
0 0 0 0 0 0 0 0 0 0 0 0 0 0 0 0 0 0 0 0 0 0 0 0 0 0 0 0 0 0 0 0 0 0 0 0 0 0
0 0 0 0 0 0 0 0 0 0 0 0 0 0 0 0 0 0 0 0 0 0 0 0 0 0 0 0 0 0 0 0 0 0 0 0 0 0
1 0 0 0 0 0 0 0 0 0 0 0 0 0 0 0 0 0 0 0 0 0 0 0 0 0 0 0 0 0 0 0 0 0 0 0 0 0
2 1 0 0 0 0 0 0 0 0 0 0 0 0 0 0 0 0 0 0 0 0 0 0 0 0 0 0 0 0 0 0 0 0 0 0 0 0
3 2 1 0 0 0 0 0 0 0 0 0 0 0 0 0 0 0 0 0 0 0 0 0 0 0 0 0 0 0 0 0 0 0 0 0 0 0
2 2 1 0 0 0 0 0 0 0 0 0 0 0 0 0 0 0 0 0 0 0 0 0 0 0 0 0 0 0 0 0 0 0 0 0 0 0
1 1 0 0 0 0 0 0 0 0 0 0 0 0 0 0 0 0 0 0 0 0 0 0 0 0 0 0 0 0 0 0 0 0 0 0 0 0
0 0 0 0 0 0 0 0 0 0 0 0 0 0 0 0 0 0 0 0 0 0 0 0 0 0 0 0 0 0 0 0 0 0 0 0 0 0
0 0 0 0 0 0 0 0 0 0 0 0 0 0 0 0 0 0 0 0 0 0 0 0 0 0 0 0 0 0 0 0 0 0 0 0 0 0
0 0 0 0 0 0 0 0 0 0 0 0 0 0 0 0 0 0 0 0 0 0 0 0 0 0 0 0 0 0 0 0 0 0 0 0 0 0
0 0 0 0 0 0 0 0 0 0 0 0 0 0 0 0 0 0 0 0 0 0 0 0 0 0 0 0 0 0 0 0 0 0 0 0 0 0
0 0 0 0 0 0 0 0 0 0 0 0 0 0 0 0 0 0 0 0 0 0 0 0 0 0 0 0 0 0 0 0 0 0 0 0 0 0
0 0 0 0 0 0 0 0 0 0 0 0 0 0 0 0 0 0 0 0 0 0 0 0 0 0 0 0 0 0 0 0 0 0 0 0 0 0
0 0 0 0 0 0 0 0 0 0 0 0 0 0 0 0 0 0 0 0 0 0 0 0 0 0 0 0 0 0 0 0 0 0 0 0 0 0
0 0 0 0 0 0 0 0 0 0 0 0 0 0 0 0 0 0 0 0 0 0 0 0 0 0 0 0 0 0 0 0 0 0 0 0 0 0
0 0 0 0 0 0 0 0 0 0 0 0 0 0 0 0 0 0 0 0 0 0 0 0 0 0 0 0 0 0 0 0 0 0 0 0 0 0
0 0 0 0 0 0 0 0 0 0 0 0 0 0 0 0 0 0 0 0 0 0 0 0 0 0 0 0 0 0 0 0 0 0 0 0 0 0
0 0 0 0 0 0 0 0 0 0 0 0 0 0 0 0 0 0 0 0 0 0 0 0 0 0 0 0 0 0 0 0 0 0 0 0 0 0
0 0 0 0 0 0 0 0 0 0 0 0 0 0 0 0 0 0 0 0 0 0 0 0 0 0 0 0 0 0 0 0 0 0 0 0 0 0
0 0 0 0 0 0 0 0 0 0 0 0 0 0 0 0 0 0 0 0 0 0 0 0 0 0 0 0 0 0 0 0 0 0 0 0 0 0
0 0 0 0 0 0 0 0 0 0 0 0 0 0 0 0 0 0 0 0 0 0 0 0 0 0 0 0 0 0 0 0 0 0 0 0 0 0
0 0 0 0 0 0 0 0 0 0 0 0 0 0 0 0 0 0 0 0 0 0 0 0 0 0 0 0 0 0 0 0 0 0 0 0 0 0
0 0 0 0 0 0 0 0 0 0 0 0 0 0 0 0 0 0 0 0 0 0 0 0 0 0 0 0 0 0 0 0 0 0 0 0 0 0
Wind_Speed
4 4 2 2 2 2 2 3 4 2 2 3 2 2 2 3 5 4 5 7 8 9 9 9 9 9 8 8 9 9 9 9 9 9 9 9 9 9
3 4 3 2 2 2 3 2 2 3 3 2 2 2 2 2 4 4 5 6 8 8 9 9 9 9 10 10 10 9 9 9 9 9 10 10 9 10
4 4 4 3 2 2 2 2 2 3 3 2 2 2 2 2 2 2 3 4 4 7 8 9 10 10 10 10 9 9 9 9 9 10 10 10 10 11
5 4 4 3 3 3 2 3 3 3 3 3 2 1 2 2 2 2 2 3 3 5 7 8 9 9 9 9 9 9 10 10 10 10 10 11 11 12
5 5 5 5 4 3 3 3 3 3 3 3 2 1 1 1 1 2 2 2 3 4 5 7 7 8 8 9 9 9 10 10 10 10 11 11 11 12
5 5 5 5 5 5 4 4 3 2 2 2 2 1 2 1 1 2 2 2 2 3 3 4 4 5 7 8 8 9 9 9 10 10 11 11 11 11
4 4 4 5 5 4 3 3 3 2 2 2 2 1 1 1 1 1 2 3 2 2 2 2 3 3 4 6 7 8 8 9 10 10 10 11 11 11
3 3 2 2 3 3 3 3 3 3 2 2 1 1 2 2 2 2 2 2 3 1 2 3 2 3 4 4 5 7 8 8 8 8 9 10 10 11
2 2 1 1 2 2 2 2 1 1 3 3 2 2 2 2 2 2 2 3 3 2 2 3 2 3 3 3 5 6 7 7 7 7 7 8 9 9
2 2 2 1 1 2 2 2 2 1 0 1 1 2 2 2 2 2 3 3 3 2 1 3 3 3 4 4 5 5 5 5 6 7 7 7 8 9
2 2 2 2 2 3 3 3 2 2 3 3 2 2 3 3 1 0 1 1 3 2 1 2 3 4 4 4 3 4 5 6 7 7 8 8 8 8
3 4 5 5 5 5 3 3 2 2 3 3 4 5 4 4 4 1 1 2 2 3 1 2 2 3 4 2 3 4 4 5 7 7 8 8 7 5
4 4 5 8 8 8 6 4 3 2 3 4 4 4 4 4 4 3 2 1 2 2 2 2 2 2 3 4 4 4 4 4 5 5 6 7 7 5
5 5 6 11 12 11 8 8 8 6 4 4 4 5 5 5 4 4 4 2 1 2 4 3 2 2 3 4 5 4 4 5 4 4 5 6 6 7
8 11 12 12 11 10 13 12 8 6 5 5 5 4 4 4 4 4 4 4 3 3 3 3 3 3 3 4 5 5 5 5 4 5 5 5 5 5
8 11 13 13 11 10 9 8 7 6 5 5 4 4 4 5 5 5 5 5 4 4 4 5 4 4 4 5 5 6 5 5 5 6 7 6 6 5
7 7 7 7 8 7 7 7 7 7 6 6 5 5 5 5 5 5 4 4 4 5 6 5 5 5 5 5 5 5 6 5 6 6 6 7 6 6
9 8 7 7 7 7 6 6 6 6 6 5 5 5 5 5 5 5 5 5 5 5 5 6 6 6 5 3 3 6 6 6 7 7 6 7 8 6
9 7 7 6 6 6 5 5 5 5 5 5 5 5 5 5 5 5 6 5 5 6 6 5 5 5 7 8 5 3 6 7 8 7 7 7 9 9
7 6 6 5 5 5 4 4 4 4 5 5 5 5 5 5 5 6 6 6 6 6 6 6 5 5 6 7 7 7 7 7 7 8 8 8 8 9
6 5 5 4 4 4 4 4 4 4 5 5 5 5 5 5 5 6 6 7 7 6 7 7 7 9 7 5 6 6 7 7 7 7 8 8 8 8
5 4 4 4 3 3 3 4 4 4 5 5 5 5 5 5 6 7 6 6 6 7 8 7 8 7 5 5 7 8 8 8 7 8 8 7 6 7
4 4 4 4 3 3 3 4 5 4 4 5 5 5 5 5 5 6 6 6 6 7 8 7 7 6 6 6 7 7 10 10 8 8 7 7 8 11
Wind_Direction
180 179 183 192 188 187 175 167 161 190 254 272 276 278 245 236 236 228 232 237 234 234 236 237 238 241 245 249 250 251 250 249 249 249 251 253 254 255
180 179 186 189 189 182 181 181 176 174 218 252 255 276 281 264 237 229 236 239 240 239 239 241 243 245 247 248 248 248 248 249 249 250 251 251 251 252
188 189 196 183 184 188 178 174 180 173 207 259 261 276 271 279 285 250 245 241 244 241 240 241 244 246 248 248 248 247 247 248 249 252 254 254 252 252
196 191 200 188 190 191 187 191 193 192 197 232 259 272 267 279 279 275 268 254 251 251 244 245 245 246 246 246 247 248 249 249 248 250 252 253 253 252
193 193 200 190 200 199 197 200 202 197 197 213 249 266 283 299 304 293 288 284 272 262 252 251 252 253 252 250 247 248 250 251 251 250 250 250 251 252
198 199 202 200 206 201 201 204 197 189 188 208 240 263 277 299 297 293 298 291 293 295 285 277 269 263 259 256 253 249 249 249 250 250 251 251 252 252
193 196 200 198 199 189 188 195 187 190 194 210 235 253 278 294 279 277 277 293 287 282 295 291 283 277 272 265 261 256 254 254 255 254 253 253 252 252
184 186 187 188 183 166 162 156 158 175 193 198 217 236 269 269 275 273 281 296 291 289 285 288 276 275 275 266 265 265 265 263 261 258 258 257 254 251
169 167 159 132 161 157 141 132 139 156 177 188 209 235 254 259 257 266 254 255 265 292 278 283 281 283 288 288 276 274 277 279 276 271 266 264 262 258
135 141 138 109 108 135 126 104 83 55 108 179 215 250 264 269 248 268 273 273 269 273 252 271 286 284 296 291 290 289 290 290 289 285 279 274 271 269
88 86 115 112 74 114 118 109 78 38 51 56 42 16 11 8 356 307 299 293 291 290 272 274 290 295 290 284 292 304 306 304 297 291 287 285 282 278
82 68 67 73 64 78 98 100 80 25 28 34 34 27 25 25 28 12 292 277 285 292 340 301 296 307 297 287 302 312 311 307 301 297 297 296 294 287
91 74 64 69 68 68 74 75 74 66 60 57 47 36 30 25 20 13 358 312 286 286 334 318 301 306 289 300 304 304 307 311 311 304 299 299 296 285
93 84 77 73 68 63 64 63 62 60 60 56 47 33 23 12 2 0 0 358 326 302 324 325 302 305 298 292 293 302 308 310 309 307 312 310 298 285
91 88 80 73 69 64 58 57 56 55 55 53 43 27 12 2 2 360 2 3 1 351 351 341 317 300 284 281 290 295 305 307 307 309 309 304 302 301
85 80 75 69 66 60 54 49 47 47 50 45 31 16 8 10 14 8 359 354 351 345 344 338 326 307 290 284 282 289 294 297 307 310 307 298 292 287
89 73 65 59 56 52 50 45 41 40 40 33 29 22 15 12 8 1 358 356 350 335 334 338 332 314 286 281 287 290 297 301 305 310 305 301 300 301
82 74 68 63 60 55 52 46 40 36 30 27 24 18 11 5 359 358 356 352 343 335 333 332 333 331 325 303 265 295 307 311 313 310 304 299 300 304
77 75 71 66 61 57 53 47 38 26 22 25 22 14 6 1 357 353 351 346 339 331 328 329 332 332 324 320 317 297 309 312 312 310 306 300 298 302
71 74 71 65 61 55 48 41 32 24 22 20 16 9 2 354 350 347 344 339 331 326 325 329 332 328 312 305 303 304 301 300 307 308 309 305 296 290
71 70 67 64 58 51 42 34 27 19 12 7 5 359 353 347 342 338 333 329 325 324 325 324 319 310 297 285 289 300 309 300 289 294 306 307 307 306
75 72 63 57 51 44 35 26 18 12 6 2 354 349 344 338 333 329 327 326 322 319 316 314 316 317 313 309 311 312 312 315 310 294 283 279 300 308
77 71 61 50 44 37 29 20 12 2 356 350 345 341 337 332 326 321 320 319 318 319 322 321 322 322 319 315 314 315 317 319 319 319 316 311 291 282